When you browse on this site, cookies collect data to enhance your experience and personalize the content and advertising you see.
Visit our Privacy Policy to learn more. By continuing to use the site, you agree to this use of cookies and data.
  • In Austria
  • List of Countries
  • For 7 days
  • Water Temperature
  • Weather Map
  • News
  • Weather Widgets
  • user-avatar
    Login

    Hourly Weather Prutz

    Today, 25 February, Tuesday

    Time Temperature Precipitation Wind Pressure Humidity
    00:00 +2°C° 0 mm 2 mps 629 mmHg 63%
    01:00 +2°C° 0 mm 1 mps 629 mmHg 64%
    02:00 +1°C° 0 mm 2 mps 628 mmHg 65%
    03:00 +1°C° 0 mm 2 mps 627 mmHg 65%
    04:00 +1°C° 0 mm 2 mps 627 mmHg 65%
    05:00 -1°C° 0 mm 2 mps 627 mmHg 66%
    06:00 +1°C° 0 mm 1 mps 626 mmHg 67%
    07:00 +1°C° 0 mm 1 mps 626 mmHg 68%
    08:00 +2°C° 0 mm 1 mps 626 mmHg 70%
    09:00 +3°C° 0 mm 1 mps 626 mmHg 73%
    10:00 +5°C° 0 mm 1 mps 626 mmHg 75%
    11:00 +5°C° 0 mm 1 mps 626 mmHg 78%
    12:00 +5°C° 0 mm 1 mps 626 mmHg 82%
    13:00 +6°C° 0 mm 1 mps 625 mmHg 85%
    14:00 +5°C° 0.1 mm 1 mps 625 mmHg 86%
    15:00 +5°C° 0.1 mm 1 mps 624 mmHg 88%
    16:00 +5°C° 0.1 mm 1 mps 624 mmHg 90%
    17:00 +4°C° 0.2 mm 1 mps 623 mmHg 91%
    18:00 +3°C° 0.2 mm 1 mps 623 mmHg 93%
    19:00 +2°C° 0.2 mm 1 mps 622 mmHg 95%
    20:00 +1°C° 0.4 mm 1 mps 622 mmHg 94%
    21:00 +1°C° 0.4 mm 1 mps 622 mmHg 94%
    22:00 -1°C° 0.4 mm 2 mps 621 mmHg 94%
    23:00 -2°C° 0.9 mm 2 mps 621 mmHg 94%

    Tomorrow, 26 February, Wednesday

    Time Temperature Precipitation Wind Pressure Humidity
    00:00 -2°C° 0.9 mm 2 mps 620 mmHg 95%
    01:00 -2°C° 0.9 mm 2 mps 620 mmHg 96%
    02:00 -3°C° 0.8 mm 2 mps 619 mmHg 96%
    03:00 -4°C° 0.8 mm 2 mps 618 mmHg 96%
    04:00 -4°C° 0.8 mm 2 mps 618 mmHg 96%
    05:00 -5°C° 0.2 mm 2 mps 617 mmHg 95%
    06:00 -6°C° 0.2 mm 2 mps 617 mmHg 95%
    07:00 -7°C° 0.2 mm 2 mps 617 mmHg 94%
    08:00 -6°C° 0.3 mm 2 mps 617 mmHg 82%
    09:00 -5°C° 0.3 mm 2 mps 617 mmHg 71%
    10:00 -4°C° 0.3 mm 2 mps 617 mmHg 60%
    11:00 -6°C° 0.2 mm 3 mps 617 mmHg 63%
    12:00 -7°C° 0.2 mm 4 mps 617 mmHg 66%
    13:00 -7°C° 0.2 mm 5 mps 617 mmHg 69%
    14:00 -8°C° 0.2 mm 5 mps 618 mmHg 70%
    15:00 -10°C° 0.2 mm 5 mps 618 mmHg 72%
    16:00 -9°C° 0.2 mm 4 mps 618 mmHg 73%
    17:00 -9°C° 0.3 mm 3 mps 618 mmHg 80%
    18:00 -10°C° 0.3 mm 3 mps 619 mmHg 87%
    19:00 -9°C° 0.3 mm 2 mps 620 mmHg 94%
    20:00 -9°C° 0.5 mm 2 mps 620 mmHg 94%
    21:00 -9°C° 0.5 mm 2 mps 621 mmHg 94%
    22:00 -9°C° 0.5 mm 2 mps 622 mmHg 94%
    23:00 -9°C° 0.5 mm 2 mps 622 mmHg 94%

    Day after tomorrow, 27 February, Thursday

    Time Temperature Precipitation Wind Pressure Humidity
    00:00 -9°C° 0.5 mm 2 mps 623 mmHg 94%
    01:00 -9°C° 0.5 mm 2 mps 623 mmHg 94%
    02:00 -10°C° 0.1 mm 2 mps 623 mmHg 93%
    03:00 -12°C° 0.1 mm 2 mps 623 mmHg 91%
    04:00 -12°C° 0.1 mm 2 mps 623 mmHg 90%
    05:00 -12°C° 0.1 mm 2 mps 623 mmHg 89%
    06:00 -12°C° 0.1 mm 2 mps 623 mmHg 88%
    07:00 -12°C° 0.1 mm 2 mps 623 mmHg 87%
    08:00 -10°C° 0 mm 2 mps 624 mmHg 80%
    09:00 -8°C° 0 mm 2 mps 624 mmHg 73%
    10:00 -7°C° 0 mm 2 mps 624 mmHg 67%
    11:00 -7°C° 0 mm 3 mps 623 mmHg 65%
    12:00 -6°C° 0 mm 3 mps 623 mmHg 63%
    13:00 -5°C° 0 mm 4 mps 622 mmHg 61%
    14:00 -7°C° 0.7 mm 4 mps 621 mmHg 70%
    15:00 -7°C° 0.7 mm 5 mps 620 mmHg 79%
    16:00 -8°C° 0.7 mm 5 mps 619 mmHg 89%
    17:00 -8°C° 0.5 mm 5 mps 619 mmHg 88%
    18:00 -10°C° 0.5 mm 5 mps 618 mmHg 87%
    19:00 -10°C° 0.5 mm 5 mps 618 mmHg 86%
    20:00 -9°C° 0.6 mm 4 mps 619 mmHg 88%
    21:00 -8°C° 0.6 mm 4 mps 619 mmHg 91%
    22:00 -7°C° 0.6 mm 3 mps 620 mmHg 94%
    23:00 -7°C° 0.7 mm 3 mps 621 mmHg 94%

    28 February, Friday

    Time Temperature Precipitation Wind Pressure Humidity
    00:00 -7°C° 0.7 mm 3 mps 622 mmHg 94%
    01:00 -7°C° 0.7 mm 3 mps 622 mmHg 94%
    02:00 -8°C° 0.7 mm 3 mps 623 mmHg 95%
    03:00 -9°C° 0.7 mm 3 mps 623 mmHg 95%
    04:00 -9°C° 0.7 mm 2 mps 624 mmHg 95%
    05:00 -9°C° 0.4 mm 2 mps 624 mmHg 95%
    06:00 -10°C° 0.4 mm 2 mps 625 mmHg 95%
    07:00 -10°C° 0.4 mm 2 mps 626 mmHg 95%
    08:00 -9°C° 0 mm 2 mps 627 mmHg 88%
    09:00 -8°C° 0 mm 2 mps 628 mmHg 82%
    10:00 -7°C° 0 mm 2 mps 628 mmHg 75%
    11:00 -6°C° 0 mm 2 mps 629 mmHg 67%
    12:00 -5°C° 0 mm 2 mps 629 mmHg 60%
    13:00 -2°C° 0 mm 1 mps 629 mmHg 52%
    14:00 -1°C° 0 mm 1 mps 629 mmHg 53%
    15:00 -1°C° 0 mm 1 mps 629 mmHg 55%
    16:00 0°C° 0 mm 1 mps 629 mmHg 56%
    17:00 -2°C° 0 mm 1 mps 629 mmHg 57%
    18:00 -5°C° 0 mm 2 mps 628 mmHg 58%
    19:00 -6°C° 0 mm 2 mps 628 mmHg 58%
    20:00 -5°C° 0 mm 2 mps 628 mmHg 59%
    21:00 -5°C° 0 mm 2 mps 629 mmHg 60%
    22:00 -5°C° 0 mm 2 mps 629 mmHg 61%
    23:00 -6°C° 0 mm 3 mps 628 mmHg 63%

    29 February, Saturday

    Time Temperature Precipitation Wind Pressure Humidity
    00:00 -6°C° 0 mm 3 mps 628 mmHg 65%
    01:00 -6°C° 0 mm 3 mps 627 mmHg 67%
    02:00 -6°C° 0 mm 3 mps 627 mmHg 68%
    03:00 -6°C° 0 mm 3 mps 627 mmHg 68%
    04:00 -6°C° 0 mm 3 mps 626 mmHg 68%
    05:00 -6°C° 0 mm 3 mps 626 mmHg 68%
    06:00 -6°C° 0 mm 3 mps 626 mmHg 67%
    07:00 -6°C° 0 mm 3 mps 625 mmHg 67%
    08:00 -4°C° 0 mm 3 mps 626 mmHg 69%
    09:00 -1°C° 0 mm 3 mps 626 mmHg 71%
    10:00 0°C° 0 mm 3 mps 626 mmHg 73%
    11:00 +1°C° 0 mm 3 mps 626 mmHg 76%
    12:00 +1°C° 0 mm 3 mps 625 mmHg 79%
    13:00 +2°C° 0 mm 3 mps 625 mmHg 82%
    14:00 +2°C° 0 mm 3 mps 624 mmHg 82%
    15:00 +1°C° 0 mm 3 mps 624 mmHg 82%
    16:00 +1°C° 0 mm 3 mps 623 mmHg 82%
    17:00 0°C° 0 mm 3 mps 623 mmHg 82%
    18:00 -2°C° 0 mm 3 mps 623 mmHg 83%
    19:00 -4°C° 0 mm 3 mps 623 mmHg 84%
    20:00 -5°C° 0.4 mm 3 mps 623 mmHg 87%
    21:00 -4°C° 0.4 mm 2 mps 624 mmHg 90%
    22:00 -4°C° 0.4 mm 2 mps 624 mmHg 92%
    23:00 -4°C° 0.7 mm 2 mps 624 mmHg 94%

    1 March, Sunday

    Time Temperature Precipitation Wind Pressure Humidity
    00:00 -3°C° 0.7 mm 1 mps 623 mmHg 95%
    01:00 -3°C° 0.7 mm 1 mps 623 mmHg 96%
    02:00 -4°C° 0.3 mm 1 mps 623 mmHg 96%
    03:00 -4°C° 0.3 mm 1 mps 622 mmHg 95%
    04:00 -6°C° 0.3 mm 1 mps 622 mmHg 95%
    05:00 -7°C° 0 mm 1 mps 622 mmHg 92%
    06:00 -8°C° 0 mm 1 mps 622 mmHg 90%
    07:00 -8°C° 0 mm 1 mps 622 mmHg 87%
    08:00 -6°C° 0 mm 1 mps 622 mmHg 84%
    09:00 -3°C° 0 mm 1 mps 623 mmHg 82%
    10:00 -1°C° 0 mm 1 mps 624 mmHg 79%
    11:00 -1°C° 0 mm 1 mps 624 mmHg 78%
    12:00 0°C° 0 mm 1 mps 624 mmHg 77%
    13:00 +1°C° 0 mm 1 mps 624 mmHg 75%
    14:00 +1°C° 0 mm 1 mps 624 mmHg 74%
    15:00 +1°C° 0 mm 1 mps 624 mmHg 73%
    16:00 +1°C° 0 mm 1 mps 624 mmHg 72%
    17:00 -1°C° 0 mm 1 mps 623 mmHg 76%
    18:00 -3°C° 0 mm 1 mps 623 mmHg 80%
    19:00 -6°C° 0 mm 1 mps 622 mmHg 83%
    20:00 -6°C° 0 mm 1 mps 622 mmHg 83%
    21:00 -7°C° 0 mm 2 mps 622 mmHg 82%
    22:00 -7°C° 0 mm 2 mps 622 mmHg 81%
    23:00 -7°C° 0 mm 2 mps 622 mmHg 82%
    Show more